When you browse on this site, cookies collect data to enhance your experience and personalize the content and advertising you see.
Visit our Privacy Policy to learn more. By continuing to use the site, you agree to this use of cookies and data.
EN

Hourly Weather Berlin

Today, 7 August, Friday

Time Temperature Precipitation Wind Pressure Humidity
00:00 +23°C° 0 mm 2 mps 763 mmHg 72%
01:00 +21°C° 0 mm 2 mps 763 mmHg 77%
02:00 +21°C° 0 mm 2 mps 763 mmHg 79%
03:00 +20°C° 0 mm 2 mps 763 mmHg 82%
04:00 +20°C° 0 mm 2 mps 763 mmHg 84%
05:00 +21°C° 0 mm 2 mps 763 mmHg 81%
06:00 +23°C° 0 mm 2 mps 763 mmHg 77%
07:00 +24°C° 0 mm 2 mps 763 mmHg 74%
08:00 +26°C° 0 mm 2 mps 763 mmHg 68%
09:00 +27°C° 0 mm 2 mps 763 mmHg 61%
10:00 +29°C° 0 mm 2 mps 763 mmHg 55%
11:00 +29°C° 0 mm 2 mps 763 mmHg 54%
12:00 +30°C° 0 mm 2 mps 763 mmHg 53%
13:00 +30°C° 0 mm 2 mps 762 mmHg 52%
14:00 +31°C° 0 mm 2 mps 762 mmHg 51%
15:00 +31°C° 0 mm 1 mps 762 mmHg 51%
16:00 +31°C° 0 mm 1 mps 762 mmHg 51%
17:00 +30°C° 0 mm 1 mps 762 mmHg 54%
18:00 +29°C° 0 mm 1 mps 762 mmHg 57%
19:00 +26°C° 0 mm 0 mps 762 mmHg 60%
20:00 +27°C° 0 mm 1 mps 762 mmHg 63%
21:00 +26°C° 0 mm 1 mps 762 mmHg 67%
22:00 +25°C° 0 mm 1 mps 762 mmHg 70%
23:00 +25°C° 0 mm 1 mps 762 mmHg 72%

Tomorrow, 8 August, Saturday

Time Temperature Precipitation Wind Pressure Humidity
00:00 +22°C° 0 mm 0 mps 762 mmHg 75%
01:00 +22°C° 0 mm 0 mps 762 mmHg 77%
02:00 +22°C° 0 mm 0 mps 762 mmHg 78%
03:00 +21°C° 0 mm 0 mps 762 mmHg 79%
04:00 +21°C° 0 mm 0 mps 762 mmHg 80%
05:00 +22°C° 0 mm 0 mps 762 mmHg 76%
06:00 +23°C° 0 mm 0 mps 762 mmHg 71%
07:00 +24°C° 0 mm 0 mps 762 mmHg 67%
08:00 +26°C° 0 mm 0 mps 762 mmHg 60%
09:00 +28°C° 0 mm 0 mps 762 mmHg 53%
10:00 +30°C° 0 mm 0 mps 762 mmHg 46%
11:00 +31°C° 0 mm 0 mps 762 mmHg 43%
12:00 +32°C° 0 mm 0 mps 761 mmHg 39%
13:00 +33°C° 0 mm 0 mps 761 mmHg 36%
14:00 +34°C° 0 mm 1 mps 761 mmHg 37%
15:00 +34°C° 0 mm 1 mps 761 mmHg 38%
16:00 +33°C° 0 mm 1 mps 760 mmHg 39%
17:00 +32°C° 0 mm 1 mps 761 mmHg 44%
18:00 +31°C° 0 mm 1 mps 761 mmHg 48%
19:00 +30°C° 0 mm 1 mps 761 mmHg 52%
20:00 +29°C° 0.2 mm 2 mps 761 mmHg 56%
21:00 +28°C° 0.2 mm 2 mps 761 mmHg 61%
22:00 +27°C° 0.2 mm 2 mps 761 mmHg 65%
23:00 +27°C° 0 mm 2 mps 761 mmHg 68%

Day after tomorrow, 9 August, Sunday

Time Temperature Precipitation Wind Pressure Humidity
00:00 +26°C° 0 mm 2 mps 761 mmHg 71%
01:00 +25°C° 0 mm 2 mps 761 mmHg 74%
02:00 +25°C° 0 mm 2 mps 761 mmHg 76%
03:00 +25°C° 0 mm 2 mps 761 mmHg 77%
04:00 +24°C° 0 mm 2 mps 761 mmHg 79%
05:00 +24°C° 0 mm 2 mps 761 mmHg 78%
06:00 +25°C° 0 mm 2 mps 761 mmHg 76%
07:00 +25°C° 0 mm 2 mps 761 mmHg 75%
08:00 +27°C° 0 mm 2 mps 761 mmHg 68%
09:00 +29°C° 0 mm 2 mps 761 mmHg 60%
10:00 +30°C° 0 mm 2 mps 761 mmHg 53%
11:00 +31°C° 0.3 mm 2 mps 761 mmHg 49%
12:00 +32°C° 0.3 mm 2 mps 761 mmHg 46%
13:00 +34°C° 0.3 mm 2 mps 760 mmHg 43%
14:00 +34°C° 0 mm 2 mps 760 mmHg 43%
15:00 +34°C° 0 mm 2 mps 760 mmHg 44%
16:00 +33°C° 0 mm 3 mps 760 mmHg 45%
17:00 +31°C° 0.1 mm 3 mps 760 mmHg 51%
18:00 +30°C° 0.1 mm 3 mps 760 mmHg 57%
19:00 +28°C° 0.1 mm 3 mps 760 mmHg 63%
20:00 +27°C° 0.5 mm 3 mps 760 mmHg 69%
21:00 +25°C° 0.5 mm 3 mps 760 mmHg 75%
22:00 +24°C° 0.5 mm 3 mps 760 mmHg 81%
23:00 +22°C° 0.1 mm 3 mps 760 mmHg 82%

10 August, Monday

Time Temperature Precipitation Wind Pressure Humidity
00:00 +22°C° 0.1 mm 3 mps 760 mmHg 84%
01:00 +21°C° 0.1 mm 3 mps 760 mmHg 85%
02:00 +21°C° 0 mm 2 mps 760 mmHg 86%
03:00 +21°C° 0 mm 2 mps 760 mmHg 87%
04:00 +20°C° 0 mm 2 mps 760 mmHg 87%
05:00 +21°C° 0 mm 2 mps 760 mmHg 85%
06:00 +22°C° 0 mm 3 mps 760 mmHg 82%
07:00 +22°C° 0 mm 3 mps 760 mmHg 79%
08:00 +25°C° 0 mm 3 mps 760 mmHg 72%
09:00 +27°C° 0 mm 3 mps 760 mmHg 64%
10:00 +29°C° 0 mm 3 mps 760 mmHg 57%
11:00 +30°C° 0.2 mm 3 mps 760 mmHg 53%
12:00 +31°C° 0.2 mm 3 mps 760 mmHg 49%
13:00 +33°C° 0.2 mm 3 mps 760 mmHg 45%
14:00 +33°C° 0 mm 3 mps 759 mmHg 44%
15:00 +33°C° 0 mm 3 mps 759 mmHg 43%
16:00 +33°C° 0 mm 3 mps 759 mmHg 43%
17:00 +31°C° 0 mm 3 mps 759 mmHg 48%
18:00 +30°C° 0 mm 3 mps 759 mmHg 53%
19:00 +28°C° 0 mm 3 mps 759 mmHg 58%
20:00 +27°C° 0 mm 3 mps 760 mmHg 63%
21:00 +26°C° 0 mm 3 mps 760 mmHg 69%
22:00 +24°C° 0 mm 3 mps 760 mmHg 74%
23:00 +24°C° 0 mm 3 mps 760 mmHg 76%

11 August, Tuesday

Time Temperature Precipitation Wind Pressure Humidity
00:00 +22°C° 0 mm 3 mps 760 mmHg 79%
01:00 +23°C° 0 mm 2 mps 760 mmHg 81%
02:00 +21°C° 0 mm 2 mps 760 mmHg 83%
03:00 +21°C° 0 mm 3 mps 760 mmHg 85%
04:00 +21°C° 0 mm 3 mps 760 mmHg 86%
05:00 +21°C° 0 mm 3 mps 760 mmHg 84%
06:00 +22°C° 0 mm 3 mps 761 mmHg 81%
07:00 +22°C° 0 mm 3 mps 761 mmHg 78%
08:00 +25°C° 0 mm 4 mps 761 mmHg 70%
09:00 +26°C° 0 mm 4 mps 761 mmHg 62%
10:00 +28°C° 0 mm 4 mps 761 mmHg 54%
11:00 +29°C° 0 mm 4 mps 761 mmHg 49%
12:00 +30°C° 0 mm 4 mps 761 mmHg 43%
13:00 +32°C° 0 mm 4 mps 761 mmHg 37%
14:00 +32°C° 0 mm 4 mps 761 mmHg 36%
15:00 +32°C° 0 mm 4 mps 760 mmHg 34%
16:00 +32°C° 0 mm 4 mps 760 mmHg 32%
17:00 +29°C° 0 mm 4 mps 760 mmHg 38%
18:00 +28°C° 0 mm 4 mps 760 mmHg 44%
19:00 +26°C° 0 mm 4 mps 761 mmHg 49%
20:00 +25°C° 0 mm 4 mps 761 mmHg 53%
21:00 +23°C° 0 mm 4 mps 761 mmHg 56%
22:00 +21°C° 0 mm 4 mps 761 mmHg 59%
23:00 +20°C° 0 mm 4 mps 761 mmHg 61%

12 August, Wednesday

Time Temperature Precipitation Wind Pressure Humidity
00:00 +19°C° 0 mm 3 mps 762 mmHg 63%
01:00 +19°C° 0 mm 3 mps 762 mmHg 64%
02:00 +18°C° 0 mm 3 mps 762 mmHg 66%
03:00 +17°C° 0 mm 3 mps 761 mmHg 67%
04:00 +16°C° 0 mm 3 mps 761 mmHg 68%
05:00 +17°C° 0 mm 3 mps 761 mmHg 67%
06:00 +18°C° 0 mm 3 mps 761 mmHg 67%
07:00 +18°C° 0 mm 3 mps 761 mmHg 66%
08:00 +20°C° 0 mm 3 mps 761 mmHg 60%
09:00 +22°C° 0 mm 3 mps 761 mmHg 55%
10:00 +24°C° 0 mm 3 mps 761 mmHg 49%
11:00 +26°C° 0 mm 3 mps 761 mmHg 44%
12:00 +27°C° 0 mm 3 mps 761 mmHg 40%
13:00 +28°C° 0 mm 3 mps 760 mmHg 35%
14:00 +28°C° 0 mm 3 mps 760 mmHg 35%
15:00 +29°C° 0 mm 3 mps 760 mmHg 35%
16:00 +29°C° 0 mm 4 mps 759 mmHg 35%
17:00 +27°C° 0 mm 3 mps 759 mmHg 40%
18:00 +26°C° 0 mm 3 mps 759 mmHg 45%
19:00 +25°C° 0 mm 3 mps 759 mmHg 50%
20:00 +22°C° 0 mm 3 mps 759 mmHg 53%
21:00 +21°C° 0 mm 3 mps 759 mmHg 57%
22:00 +20°C° 0 mm 3 mps 760 mmHg 60%
23:00 +20°C° 0 mm 3 mps 760 mmHg 63%
Show more